Flag for Germany Weather past 2 weeks in Neustrelitz, Mecklenburg-Western Pomerania, Germany

Now
26 °F

Clear.


Feels Like: 26 °F
Forecast: 21 / 30 °F
Wind: 2 mph from Northwest

Location: Neuruppin

Current Time: Dec 28, 2014 at 6:22:31 PM

Latest Report: Dec 28, 2014 at 6:00 PM


Visibility: 6 mi

Pressure: 30.32 "Hg

Humidity: 92%

Dew point: 24 °F

Location of NeustrelitzLocation

Historic Weather in Neustrelitz — Graph

°F

Neustrelitz temperature yesterday

Maximum temperature yesterday: 28 °F (at 12:00 PM)
Minimum temperature yesterday: 23 °F (at 9:00 AM)
Average temperature yesterday: 26 °F

Past Weeks' High & Low Weather Summary

 TemperatureHumidityPressure
High53 °F (Dec 18, 11:00 PM)100% (Dec 14, 3:00 AM)30.34 "Hg (Dec 14, 3:00 AM)
Low17 °F (Dec 28, 9:00 AM)66% (Dec 25, 3:00 PM)29.62 "Hg (Dec 17, 7:00 PM)
Average39 °F90%29.90 "Hg
* Reported Dec 13 5:00 PM — Dec 28 5:00 PM, Neustrelitz, Weather by CustomWeather, © 2014

Note: Actual official high and low records may vary slightly from our data, if they occured in-between our weather recording intervals... More about our weather records

Advertising

Neustrelitz weather history for previous 24 hours

 ConditionsComfort  
Time TempWeatherWind HumidityBarometerVisibility
5:00 PM
Dec 28
28 °FClear.2 mph90%30.31 "Hg6 mi
4:00 PM29 °FClear.1 mph90%30.30 "Hg6 mi
3:00 PM30 °FSunny.1 mph88%30.28 "Hg6 mi
2:00 PM29 °FPassing clouds.1 mph86%30.27 "Hg6 mi
1:00 PM30 °FSunny.2 mph83%30.25 "Hg6 mi
12:00 PM26 °FSunny.2 mph87%30.24 "Hg6 mi
11:00 AM23 °FSunny.1 mph88%30.23 "Hg6 mi
10:00 AM19 °FPassing clouds.2 mph90%30.21 "Hg6 mi
9:00 AM17 °FSunny.No wind93%30.18 "Hg7 mi
8:00 AM18 °FClear.2 mph91%30.15 "Hg6 mi
7:00 AM20 °FClear.2 mph90%30.12 "Hg6 mi
6:00 AM20 °FClear.3 mph91%30.09 "Hg6 mi
5:00 AM20 °FClear.5 mph89%30.07 "Hg6 mi
3:00 AM20 °FClear.5 mph89%30.03 "Hg6 mi
2:00 AM21 °FClear.3 mph89%30.01 "Hg6 mi
1:00 AM22 °FClear.3 mph88%29.98 "Hg6 mi
12:00 AM23 °FClear.3 mph87%29.96 "Hg6 mi
11:00 PM
Dec 27
24 °FClear.3 mph87%29.95 "Hg6 mi
9:00 PM25 °FPassing clouds.5 mph87%29.92 "Hg6 mi
8:00 PM26 °FPassing clouds.5 mph87%29.89 "Hg6 mi
7:00 PM26 °FPassing clouds.5 mph88%29.87 "Hg6 mi
6:00 PM26 °FClear.5 mph87%29.86 "Hg6 mi
Weather by CustomWeather, © 2014

See weather overviewHow to use our weather pages